Torna al catalogo

IRIDIUM 33 DEB

AttivoPO
NORAD 34145·DEBRIS·🇺🇸 United States

Lanciato Sep 14, 1997 da Baikonur Cosmodrome

Loading…

Prossimi Passaggi (prossime 24 ore)

TLE

AggiornatoSource: Space-Track

Epoca: Sep 14, 2026, 14:33 UTC

1 34145U 97051DY  26257.60676172  .00002275  00000-0  65042-3 0  9992
2 34145  86.2135 209.4410 0048897 263.4934  96.0699 14.44021091916170

Traccia IRIDIUM 33 DEB in tempo reale con AllMySat

Download on the App Store